Weather Service Report


973 
FPUS83 KFGF 271531
OPUFGF
PRAIRIE TO PINES WEATHER ROUNDUP
NATIONAL WEATHER SERVICE EASTERN NORTH DAKOTA/GRAND FORKS ND
1000 AM CDT SAT AUG 27 2016

 **SATELLITE DATA USED TO AUGMENT SKY COVER AT AUTOMATED STATIONS**
 *****  WEATHER ACROSS EASTERN NORTH DAKOTA  *****
  
CITY           SKY/WX    TMP DP  RH WIND       PRES   REMARKS
GRAND FORKS    LGT RAIN  60  57  89 SE13      29.95S                  
GRAND FORKS AF CLOUDY    60  58  94 S10       29.95R                  
GRAND CITY NWS   N/A     57 N/A N/A S5          N/A                   
BUXTON           N/A     59  58  99 E2          N/A                   
DEVILS LAKE    NOT AVBL                                               
FARGO          CLOUDY    65  60  84 S13G20    29.96F                  
WAHPETON ARPT  MOSUNNY   66  59  77 S13       29.99F                  
$$

 *****  WEATHER ACROSS CENTRAL AND WESTERN NORTH DAKOTA  *****
  
CITY           SKY/WX    TMP DP  RH WIND       PRES   REMARKS
JAMESTOWN      MOSUNNY   64  59  83 S7        29.94S                  
BISMARCK       MOSUNNY   62  54  74 VRB3      29.94S                  
MINOT          SUNNY     64  52  64 NW3       29.91F                  
MINOT AFB      SUNNY     62  51  68 VRB1      29.90S                  
GARRISON         N/A     64  52  64 W5        29.93S                  
WILLISTON      SUNNY     58  46  64 S6        29.92F                  
DICKINSON      SUNNY     61  50  67 S7        29.93F                  
HETTINGER      SUNNY     62  52  69 SW7       29.97S                  
$$

 *****  OTHER OBSERVATIONS NORTHEAST NORTH DAKOTA  *****
  
CITY           SKY/WX    TMP DP  RH WIND       PRES   REMARKS
WALHALLA       FAIR      59  59 100 S7        29.93R                  
LANGDON        FAIR      63  57  82 S13       29.93S                  
CAVALIER       PTSUNNY   61  57  88 S13G18    29.93S                  
GRAFTON        FAIR      61  61 100 S8        29.96S                  
CANDO          CLOUDY    61  57  88 SW3       29.95R                  
FORT TOTTEN      N/A     62  56  82 S6        29.95                   
ROLLA          FAIR      63  55  77 SW7       29.92S                  
RUGBY          NOT AVBL                                               
 ***** THE ABOVE OBSERVATIONS ARE NON NWS ARE NOT QUALITY
        CONTROLLED AND MAY MIS-REPORT RAIN FOR SNOW...
$$

 *****  OTHER OBSERVATIONS SOUTHEAST NORTH DAKOTA *****
  
CITY           SKY/WX    TMP DP  RH WIND       PRES   REMARKS
COOPERSTOWN    NOT AVBL                                               
VALLEY CITY    PTSUNNY   63  63 100 S10       29.98R                  
OAKES            N/A    N/A N/A N/A MISG        N/A                   
GWINNER        CLOUDY    66  63  88 S12       29.98R                  
SHEYENNE NWR     N/A     65  61  88 S9        29.95S                  
BUFFALO          N/A     61  59  92 S7          N/A                   
WYNDMERE         N/A     70  63  78 S9          N/A                   
 ***** THE ABOVE OBSERVATIONS ARE NON NWS ARE NOT QUALITY
       CONTROLLED AND MAY MIS-REPORT RAIN FOR SNOW...
$$

  *****  WEATHER ACROSS NORTHERN MINNESOTA  *****     
  
CITY           SKY/WX    TMP DP  RH WIND       PRES   REMARKS
FLAG ISLAND    CLOUDY    66  59  77 S3        29.97S HAZE             
WARROAD        RAIN      61  55  82 SW8       30.01R                  
ROSEAU         RAIN      61  55  82 S14       29.98F                  
HALLOCK        CLOUDY    61  57  88 S7        29.95R                  
THF RVR FALLS  NOT AVBL                                               
HALSTAD          N/A     57  57 100 CALM        N/A                   
FOSSTON        CLOUDY    63  57  82 S8        30.01R                  
BAUDETTE       CLOUDY    65  57  75 S9        30.00S                  
WASKISH        CLOUDY    64  57  77 S6        30.01F                  
CROOKSTON      TSTM      57  57 100 SE6       29.99S                  
$$
  *****  WEATHER ACROSS CENTRAL AND WEST MINNESOTA  *****     
  
CITY           SKY/WX    TMP DP  RH WIND       PRES   REMARKS
BEMIDJI        PTSUNNY   64  58  81 S8        30.02S                  
PARK RAPIDS    CLOUDY    65  55  70 SE13      30.03S                  
WADENA         PTSUNNY   64  59  82 S7        30.03R                  
DETROIT LAKES  CLOUDY    64  57  77 S8        30.03R                  
MOORHEAD       CLOUDY    66  61  82 S13G20    29.97F                  
FERGUS FALLS   PTSUNNY   64  59  82 S13       30.04R                  
ELBOW LAKE     CLOUDY    64  58  80 S14       30.03R                  
MORRIS MN      MOSUNNY   68  59  73 S15       30.01S                  
STAPLES        MOSUNNY   64  55  72 SE9       30.03F                  
WHEATON        MOSUNNY   70  61  73 S10G16    30.03R                  
$$
  *****  WEATHER ELSEWHERE ACROSS MINNESOTA  *****     
  
CITY           SKY/WX    TMP DP  RH WIND       PRES   REMARKS
DULUTH         LGT RAIN  62  59  90 SE6       30.10S                  
INTRNTL FALLS  CLOUDY    68  57  68 VRB5      30.04S                  
ELY            CLOUDY    64  54  68 S6        30.09S                  
CLOQUET        LGT RAIN  61  55  82 E5        30.09F                  
BRAINERD       PTSUNNY   63  59  87 SE7       30.06F                  
HIBBING        CLOUDY    59  56  89 SE7       30.08F                  
ALEXANDRIA     CLOUDY    66  57  72 S14       30.03F                  
SAINT CLOUD    CLOUDY    62  62 100 SE9       30.06F                  
MINNEAPOLIS    LGT RAIN  64  59  83 SE8       30.07S                  
$$

  *****  WEATHER ACROSS SOUTH DAKOTA  *****
  
CITY           SKY/WX    TMP DP  RH WIND       PRES   REMARKS
SIOUX FALLS    CLOUDY    66  63  90 CALM      30.02S                  
BROOKINGS      CLOUDY    62  58  86 SE9       30.02F                  
WATERTOWN      CLOUDY    63  58  83 S10       30.02S                  
HURON          CLOUDY    66  61  84 S10       30.00S                  
SISSETON         N/A     67  61  81 S9        29.99R                  
ABERDEEN       CLOUDY    64  60  87 S14       29.98S                  
MITCHELL       CLOUDY    66  61  84 S7        30.02S                  
PIERRE         SUNNY     67  55  65 W7        29.95F                  
MOBRIDGE       SUNNY     65  58  78 S3        29.94S                  
RAPID CITY     SUNNY     65  53  65 S13       29.99F                  
$$

  *****  SOME WEATHER IN NEARBY STATES *****
  
CITY           SKY/WX    TMP DP  RH WIND       PRES   REMARKS
GLASGOW MT     MOSUNNY   57  47  69 SE12G20   29.85F                  
GREAT FALLS MT CLOUDY    67  36  31 SW16      29.83F                  
CHEYENNE WY    SUNNY     62  40  44 S5        30.17S                  
SCOTTSBLUFF NE CLOUDY    55  54  96 CALM      30.08S FOG              
OMAHA NE       CLOUDY    72  67  84 CALM      30.02S                  
DES MOINES IA  CLOUDY    67  65  93 S3        30.04S FOG              
DAVENPORT IA   CLOUDY    74  69  85 SW13      30.03S                  
CHICAGO IL     CLOUDY    74  71  91 S9        30.05F                  
EAU CLAIRE WI  CLOUDY    67  58  72 SE7       30.08F                  
LA CROSSE WI   CLOUDY    66  61  84 SE9       30.06S                  
$$

  *****  SOME NATIONAL WEATHER *****
  
CITY           SKY/WX    TMP DP  RH WIND       PRES   REMARKS
LA GUARDIA NY  FAIR      83  62  49 NE8       30.19S                  
RALEIGH NC     FAIR      90  74  59 NE8       30.13S HX  99           
ATLANTA GA     FAIR      83  70  64 E5        30.14R                  
NEW ORLEANS LA PTSUNNY   85  76  74 NE10      29.99R HX  94           
OKLAHOMA CITY  PTSUNNY   77  71  82 SE9       30.05S                  
ALBUQUERQUE NM MOSUNNY   68  51  54 VRB3      30.22R                  
SALT LAKE CITY MOSUNNY   71  44  37 SE14      30.07S                  
LOS ANGELES CA CLOUDY    67  57  70 SE6       29.99R                  
BOISE ID       SUNNY     66  33  29 SE7       29.95S                  
SEATTLE WA     CLOUDY    61  55  81 SW10      29.85R                  
$$

*** WEATHER ACROSS MANITOBA...SASKATCHEWAN AND ONTARIO ***
                ***ONTARIO***
  
CITY           SKY/WX    TMP DP  RH WIND       PRES   REMARKS
GERALDTON      PTSUNNY   63  55  77 S8        30.13F                  
THUNDER BAY    PTSUNNY   64  57  77 E3        30.12S                  
SIOUX LOOKOUT  PTSUNNY   66  57  72 S5        30.04S                  
TORONTO        MOSUNNY   75  57  53 S5        30.21F                  
BIG TROUT LK   MOSUNNY   61  55  82 SW7       29.95F                  
PICKLE LAKE    PTSUNNY   64  55  72 S8        30.02S                  
DRYDEN         PTSUNNY   68  55  64 S8        30.03S                  
KENORA         PTSUNNY   64  55  72 S9G17     30.00R                  
$$      
                *** MANITOBA***
  
CITY           SKY/WX    TMP DP  RH WIND       PRES   REMARKS
BRANDON        MOSUNNY   61  54  77 W8        29.88S                  
DAUPHIN        SUNNY     63  57  82 W10       29.84S                  
ISLAND LAKE    PTSUNNY   63  57  82 SW5       29.87S                  
PILOT MOUND      N/A     61  54  77 SW6         N/A                   
THE PAS        CLOUDY    59  55  88 N5        29.81S                  
THOMPSON       CLOUDY    54  54 100 VRB2      29.85S                  
WINNIPEG       PTSUNNY   61  54  77 S10       29.91S                  
LYNN LAKE      SUNNY     59  50  72 MISG      29.84S                  
CHURCHILL      MOSUNNY   59  50  72 S10       29.87F                  
GILLAM         CLOUDY    55  52  88 SE3       29.88S                  
$$
                ***SASKATCHEWAN***
  
CITY           SKY/WX    TMP DP  RH WIND       PRES   REMARKS
ESTEVAN        MOSUNNY   61  52  72 SW3       29.90                   
KINDERSLEY     PTSUNNY   57  48  72 SE10G17   29.69F                  
LLOYDMINSTER   CLOUDY    57  48  72 SE12G18   29.66F                  
PRINCE ALBERT  CLOUDY    54  54 100 SE7       29.80F FOG              
REGINA         MOSUNNY   55  50  82 SE6       29.86F                  
YORKTON        CLOUDY    57  54  88 NW9       29.85S  C1F1C2F2C3F3C4F4C5F5C6F6C7F7C8F8C9F9CaFaCbFbCcFcCdFdCe!

Return to Home page


Western Regional Climate Center, wrcc@dri.edu